Time,TemperatureF,DewpointF,PressureIn,WindDirection,WindDirectionDegrees,WindSpeedMPH,WindSpeedGustMPH,Humidity,HourlyPrecipIn,Conditions,Clouds,dailyrainin,SoftwareType,DateUTC
2013-08-27 00:12:00,59.0,57.0,29.96,SSW,196,13.0,18.0,94,0.08,,,1.13,,2013-08-27 07:12:00,
2013-08-27 00:21:00,59.0,57.0,29.96,SSW,193,15.0,19.0,94,0.10,,,1.17,,2013-08-27 07:21:00,
2013-08-27 00:42:00,59.0,58.0,29.95,SSW,204,15.0,20.0,95,0.12,,,1.19,,2013-08-27 07:42:00,
2013-08-27 00:52:00,59.0,58.0,29.95,SSW,200,12.0,17.0,96,0.10,,,1.20,,2013-08-27 07:52:00,
2013-08-27 01:11:00,59.0,58.0,29.96,SSW,203,13.0,18.0,95,0.08,,,1.22,,2013-08-27 08:11:00,
2013-08-27 01:22:00,58.0,57.0,29.96,SSW,193,15.0,18.0,96,0.06,,,1.23,,2013-08-27 08:22:00,
2013-08-27 01:42:00,58.0,57.0,29.96,SSW,195,14.0,19.0,96,0.05,,,1.24,,2013-08-27 08:42:00,
2013-08-27 01:52:00,59.0,58.0,29.95,SSW,194,14.0,21.0,96,0.05,,,1.25,,2013-08-27 08:52:00,
2013-08-27 02:11:00,59.0,58.0,29.95,SSW,194,9.0,16.0,96,0.05,,,1.27,,2013-08-27 09:11:00,
2013-08-27 02:21:00,59.0,58.0,29.95,SSW,206,8.0,15.0,96,0.05,,,1.28,,2013-08-27 09:21:00,
2013-08-27 02:43:00,59.0,58.0,29.95,SSW,198,10.0,15.0,96,0.04,,,1.28,,2013-08-27 09:43:00,
2013-08-27 02:54:00,59.0,58.0,29.94,SSW,192,10.0,16.0,96,0.04,,,1.29,,2013-08-27 09:54:00,
2013-08-27 03:14:00,59.0,58.0,29.94,SSW,196,11.0,14.0,96,0.03,,,1.30,,2013-08-27 10:14:00,
2013-08-27 03:25:00,59.0,58.0,29.93,SSW,200,10.0,19.0,96,0.02,,,1.30,,2013-08-27 10:25:00,
2013-08-27 03:43:00,57.0,56.0,29.93,SSW,192,10.0,14.0,96,0.02,,,1.30,,2013-08-27 10:43:00,
2013-08-27 03:53:00,58.0,57.0,29.93,South,190,9.0,15.0,97,0.01,,,1.30,,2013-08-27 10:53:00,
2013-08-27 04:12:00,59.0,58.0,29.93,South,184,7.0,13.0,97,0.01,,,1.31,,2013-08-27 11:12:00,
2013-08-27 04:22:00,59.0,58.0,29.92,SSW,198,8.0,11.0,97,0.01,,,1.31,,2013-08-27 11:22:00,
2013-08-27 04:42:00,58.0,57.0,29.92,South,179,8.0,11.0,96,0.01,,,1.31,,2013-08-27 11:42:00,
2013-08-27 04:52:00,58.0,57.0,29.92,South,171,7.0,13.0,97,0.02,,,1.32,,2013-08-27 11:52:00,
2013-08-27 05:12:00,59.0,58.0,29.92,South,187,7.0,12.0,97,0.01,,,1.32,,2013-08-27 12:12:00,
2013-08-27 05:21:00,60.0,59.0,29.92,SSW,195,10.0,17.0,97,0.01,,,1.32,,2013-08-27 12:21:00,
2013-08-27 05:42:00,60.0,59.0,29.92,SSW,193,9.0,16.0,97,0.01,,,1.32,,2013-08-27 12:42:00,
2013-08-27 05:52:00,60.0,59.0,29.92,SSW,195,8.0,15.0,97,0.00,,,1.32,,2013-08-27 12:52:00,
2013-08-27 06:11:00,60.0,59.0,29.91,South,190,6.0,13.0,97,0.00,,,1.32,,2013-08-27 13:11:00,
2013-08-27 06:22:00,60.0,59.0,29.91,SSW,204,5.0,10.0,97,0.01,,,1.33,,2013-08-27 13:22:00,
2013-08-27 06:42:00,59.0,58.0,29.92,South,185,6.0,10.0,97,0.01,,,1.33,,2013-08-27 13:42:00,
2013-08-27 06:52:00,60.0,59.0,29.92,SSE,167,2.0,10.0,97,0.01,,,1.33,,2013-08-27 13:52:00,
2013-08-27 07:11:00,60.0,59.0,29.91,SSE,167,0.0,3.0,97,0.01,,,1.33,,2013-08-27 14:11:00,
2013-08-27 07:22:00,59.0,58.0,29.92,SSE,167,0.0,0.0,97,0.00,,,1.33,,2013-08-27 14:22:00,
2013-08-27 07:42:00,59.0,58.0,29.92,SW,236,0.0,4.0,97,0.00,,,1.33,,2013-08-27 14:42:00,
2013-08-27 07:53:00,60.0,59.0,29.92,SW,236,0.0,0.0,97,0.00,,,1.33,,2013-08-27 14:53:00,
2013-08-27 08:11:00,60.0,59.0,29.92,WNW,292,0.0,0.0,97,0.00,,,1.33,,2013-08-27 15:11:00,
2013-08-27 08:22:00,62.0,61.0,29.91,East,88,3.0,7.0,98,0.00,,,1.33,,2013-08-27 15:22:00,
2013-08-27 08:45:00,62.0,61.0,29.91,East,100,9.0,12.0,97,0.00,,,1.33,,2013-08-27 15:45:00,
2013-08-27 08:58:00,62.0,61.0,29.91,NNW,347,3.0,11.0,97,0.00,,,1.33,,2013-08-27 15:58:00,
2013-08-27 09:17:00,61.0,60.0,29.90,North,4,5.0,7.0,97,0.00,,,1.33,,2013-08-27 16:17:00,
2013-08-27 09:28:00,62.0,61.0,29.90,NNW,343,3.0,7.0,96,0.00,,,1.33,,2013-08-27 16:28:00,
2013-08-27 09:46:00,60.0,59.0,29.90,North,8,5.0,7.0,98,0.00,,,1.33,,2013-08-27 16:46:00,
2013-08-27 09:55:00,61.0,60.0,29.90,NNE,23,2.0,6.0,97,0.00,,,1.33,,2013-08-27 16:55:00,
2013-08-27 10:13:00,61.0,60.0,29.90,North,1,3.0,6.0,97,0.00,,,1.33,,2013-08-27 17:13:00,
2013-08-27 10:22:00,62.0,61.0,29.89,North,360,5.0,8.0,97,0.00,,,1.33,,2013-08-27 17:22:00,
2013-08-27 10:43:00,62.0,61.0,29.89,NNE,16,6.0,8.0,97,0.00,,,1.33,,2013-08-27 17:43:00,
2013-08-27 10:52:00,62.0,61.0,29.89,North,360,5.0,7.0,97,0.00,,,1.33,,2013-08-27 17:52:00,
2013-08-27 11:12:00,62.0,61.0,29.89,North,9,5.0,7.0,97,0.00,,,1.33,,2013-08-27 18:12:00,
2013-08-27 11:21:00,63.0,62.0,29.89,North,353,5.0,7.0,96,0.00,,,1.33,,2013-08-27 18:21:00,
2013-08-27 11:42:00,63.0,62.0,29.89,North,8,5.0,8.0,96,0.00,,,1.33,,2013-08-27 18:42:00,
2013-08-27 11:52:00,63.0,62.0,29.89,North,358,5.0,7.0,96,0.00,,,1.33,,2013-08-27 18:52:00,
2013-08-27 12:11:00,63.0,62.0,29.88,North,355,5.0,6.0,95,0.00,,,1.33,,2013-08-27 19:11:00,
2013-08-27 12:22:00,64.0,63.0,29.88,North,358,4.0,6.0,95,0.00,,,1.33,,2013-08-27 19:22:00,
2013-08-27 12:42:00,63.0,61.0,29.87,NNW,348,3.0,5.0,93,0.00,,,1.33,,2013-08-27 19:42:00,
2013-08-27 12:52:00,63.0,61.0,29.87,North,354,4.0,6.0,93,0.00,,,1.33,,2013-08-27 19:52:00,
2013-08-27 13:11:00,62.0,60.0,29.87,NNW,345,4.0,5.0,93,0.00,,,1.33,,2013-08-27 20:11:00,